Change the Weather History Date:

Tuesday, November 27, 2012

  Actual Average Record
Temperature  
Mean Temperature 50 °F -  
Max Temperature 59 °F 59 °F 72 °F (1949)
Min Temperature 40 °F 39 °F 28 °F (1987)
Degree Days  
Heating Degree Days 15 16  
Month to date heating degree days 264 312  
Since 1 July heating degree days 330 409  
Cooling Degree Days 0 0  
Month to date cooling degree days 0 0  
Year to date cooling degree days 1370 1320  
Growing Degree Days 1 (Base 50)    
Moisture  
Dew Point 47 °F    
Average Humidity 93    
Maximum Humidity 100    
Minimum Humidity 67    
Precipitation  
Precipitation 0.00 in 0.06 in 0.49 in (1998)
Month to date precipitation 0.99 1.51  
Year to date precipitation 7.74 11.66  
Since 1 July precipitation 1.27 2.63  
Snow  
Snow 0.00 in - 0.00 in (2001)
Month to date snowfall 0.0  
Since 1 July snowfall 0.0  
Since 1 September snowfall 0.0  
Snow Depth -    
Sea Level Pressure  
Sea Level Pressure 30.06 in    
Wind  
Wind Speed 1 mph (ESE)    
Max Wind Speed 7 mph    
Max Gust Speed 20 mph    
Visibility 2 miles    
Events Fog    
T = Trace of Precipitation, MM = Missing Value Source: NWS Daily Summary

Daily Weather History Graph

Daily Weather History Graph

Search for Another Location

Airport or City:

Trip Planner

Search our weather history database for the weather conditions in past years. The results will help you decide how hot, cold, wet, or windy it might be!

Date:

Astronomy

Nov. 27, 2012 Rise Set
Actual Time 6:58 AM PST 4:46 PM PST
Civil Twilight 6:29 AM PST 5:15 PM PST
Nautical Twilight 5:57 AM PST 5:47 PM PST
Astronomical Twilight 5:25 AM PST 6:19 PM PST
Moon 4:21 PM PST 6:08 AM PST
Length of Visible Light 10h 45m
Length of Day
9h 48m
Waxing Gibbous, 99% of the Moon is Illuminated
Nov 27
Waxing Gibbous
Nov 28
Full
Dec 6
Last Quarter
Dec 13
New
Dec 19
First Quarter

Hourly Weather History & Observations

Time (PST) Temp. Windchill Dew Point Humidity Pressure Visibility Wind Dir Wind Speed Gust Speed Precip Events Conditions
12:19 AM 42.8 °F - 42.8 °F 100% 30.07 in 0.2 mi Calm Calm - N/A Fog Fog
12:55 AM 41.0 °F - 41.0 °F 100% 30.06 in 0.2 mi Calm Calm - N/A Fog Fog
1:13 AM 42.8 °F - 42.8 °F 100% 30.05 in 0.2 mi Calm Calm - N/A Fog Fog
1:55 AM 41.0 °F - 41.0 °F 100% 30.06 in 0.2 mi Calm Calm - N/A Fog Fog
2:55 AM 43.0 °F - 43.0 °F 100% 30.07 in 0.2 mi Calm Calm - N/A Fog Fog
3:55 AM 43.0 °F - 43.0 °F 100% 30.06 in 0.2 mi Calm Calm - N/A Fog Fog
4:55 AM 44.1 °F - 44.1 °F 100% 30.07 in 0.2 mi Calm Calm - N/A Fog Fog
5:55 AM 45.0 °F - 45.0 °F 100% 30.08 in 0.2 mi Calm Calm - N/A Fog Fog
6:55 AM 46.0 °F 44.8 °F 46.0 °F 100% 30.11 in 0.2 mi NW 3.5 mph - N/A Fog Fog
7:55 AM 46.9 °F - 46.9 °F 100% 30.11 in 0.2 mi ENE 3.5 mph - N/A Fog Fog
8:55 AM 46.9 °F - 46.9 °F 100% 30.12 in 0.2 mi ENE 5.8 mph - N/A Fog Fog
9:55 AM 48.0 °F - 48.0 °F 100% 30.13 in 0.8 mi East 4.6 mph - N/A   Overcast
10:33 AM 48.2 °F - 48.2 °F 100% 30.12 in 1.2 mi SE 3.5 mph - N/A   Overcast
10:55 AM 51.1 °F - 50.0 °F 96% 30.12 in 1.2 mi South 4.6 mph - N/A   Overcast
11:55 AM 53.1 °F - 51.1 °F 93% 30.09 in 2.5 mi South 3.5 mph - N/A   Mostly Cloudy
12:47 PM 55.4 °F - 51.8 °F 88% 30.07 in 3.0 mi SW 3.5 mph - N/A   Clear
12:55 PM 55.9 °F - 51.1 °F 84% 30.06 in 3.0 mi Calm Calm - N/A   Haze
1:55 PM 57.0 °F - 51.1 °F 81% 30.06 in 4.0 mi West 3.5 mph - N/A   Haze
2:55 PM 57.9 °F - 51.1 °F 78% 30.04 in 4.0 mi Calm Calm - N/A   Haze
3:55 PM 59.0 °F - 51.1 °F 75% 30.03 in 4.0 mi Calm Calm - N/A   Haze
4:55 PM 55.9 °F - 51.1 °F 84% 30.02 in 4.0 mi SSE 3.5 mph - N/A   Haze
5:55 PM 53.1 °F - 48.9 °F 86% 30.01 in 5.0 mi Calm Calm - N/A   Clear
6:55 PM 50.0 °F - 48.0 °F 93% 30.02 in 4.0 mi Calm Calm - N/A   Clear
7:55 PM 50.0 °F - 48.9 °F 96% 30.01 in 3.0 mi Calm Calm - N/A   Clear
8:55 PM 48.0 °F - 46.0 °F 93% 30.03 in 3.0 mi Calm Calm - N/A   Clear
9:02 PM 48.2 °F - 46.4 °F 93% 30.03 in 2.5 mi Calm Calm - N/A   Clear
9:24 PM 48.2 °F - 46.4 °F 93% 30.03 in 3.0 mi Calm Calm - N/A   Clear
9:35 PM 48.2 °F - 46.4 °F 93% 30.02 in 2.5 mi Calm Calm - N/A   Clear
9:55 PM 48.9 °F - 46.9 °F 93% 30.02 in 2.5 mi ESE 3.5 mph - N/A   Clear
10:17 PM 50.0 °F - 48.2 °F 94% 30.03 in 3.0 mi East 4.6 mph - N/A   Clear
10:27 PM 50.0 °F - 48.2 °F 94% 30.03 in 2.5 mi East 4.6 mph - N/A   Clear
10:55 PM 50.0 °F - 48.9 °F 96% 30.03 in 3.0 mi Calm Calm - N/A   Clear
11:28 PM 50.0 °F - 48.2 °F 94% 30.03 in 2.5 mi East 3.5 mph - N/A   Clear
11:38 PM 50.0 °F - 48.2 °F 94% 30.03 in 3.0 mi East 4.6 mph - N/A   Clear
11:46 PM 50.0 °F - 48.2 °F 94% 30.03 in 2.5 mi East 4.6 mph - N/A   Clear
11:55 PM 50.0 °F - 48.9 °F 96% 30.01 in 2.5 mi East 5.8 mph - N/A   Clear